Weather Roundup
Issued by NWS Chicago, IL

Home | Current Version | Previous Version | Text Only | Print | Product List | Glossary On
Versions: 1 2 3 4 5 6 7 8 9 10 11 12 13 14 15 16 17 18 19 20 21 22 23 24 25 26 27 28 29 30 31 32 33 34 35 36 37 38 39 40 41 42 43 44 45 46 47 48 49 50
000
NZUS59 KLOT 160008
HRRLOT

CHICAGO AREA WEATHER ROUNDUP
NATIONAL WEATHER SERVICE CHICAGO/ROMEOVILLE IL
600 PM CST FRI DEC 15 2017

NOTE: "FAIR" INDICATES FEW OR NO CLOUDS BELOW 12,000 FEET WITH NO
SIGNIFICANT WEATHER AND/OR OBSTRUCTIONS TO VISIBILITY.

* THESE STATIONS ARE NOT UNDER NWS QUALITY CONTROL. THEY ALSO MAY NOT
  REPORT WEATHER SUCH AS PRECIPITATION OR FOG.

ILZ005-006-012>014-019>023-160100-
NORTHEAST ILLINOIS

CITY           SKY/WX    TMP DP  RH WIND       PRES   REMARKS
OHARE          CLOUDY    33  22  63 SW10      29.90R WCI  25
6HR MIN TEMP:  31; 6HR MAX TEMP:  34; 6HR PCP: TRACE;

MIDWAY         FLURRIES  34  21  59 SW12      29.92R WCI  25
6HR MIN TEMP:  32; 6HR MAX TEMP:  34; 6HR PCP: TRACE;

AURORA         CLOUDY    34  22  61 SW10      29.91S WCI  26
6HR MIN TEMP:  31; 6HR MAX TEMP:  34; 6HR PCP: TRACE;

LANSING*       CLOUDY    33  22  65 SW9       29.94R WCI  25
JOLIET*        CLOUDY    35  22  58 SW9       29.94R WCI  28
WAUKEGAN       CLOUDY    31  24  75 VRB6      29.88R WCI  25
6HR MIN TEMP:  30; 6HR MAX TEMP:  31;

DUPAGE AIRPORT CLOUDY    32  23  69 SW9       29.90R WCI  24
6HR MIN TEMP:  30; 6HR MAX TEMP:  32; 6HR PCP: TRACE;

WHEELING       CLOUDY    34  24  67 SW9       29.92R WCI  27
6HR MIN TEMP:  31; 6HR MAX TEMP:  34;

KANKAKEE*      CLOUDY    33  19  56 SW10      29.97R WCI  25
MORRIS*        CLOUDY    34  21  58 SW9       29.93R WCI  26
LEWIS AIRPORT* CLOUDY    33  22  62 SW12      29.92S WCI  24
NORTHERLY ISL    N/A     34  20  57 W9          N/A  WCI  27
$$

WIZ051-052-058>065-066-070>072-160100-
SOUTHEAST WISCONSIN

CITY           SKY/WX    TMP DP  RH WIND       PRES   REMARKS
MILWAUKEE      MOCLDY    30  23  75 SW9       29.85R WCI  22
6HR MIN TEMP:  27; 6HR MAX TEMP:  31;

KENOSHA*       CLOUDY    32  23  69 SW12      29.87R WCI  23
RACINE*        CLOUDY    30  23  75 SW9       29.88R WCI  22
BURLINGTON     CLOUDY    30  26  83 SW9       29.87R WCI  22
WAUKESHA       MOCLDY    27  21  80 SW7       29.85R WCI  19
WEST BEND      CLOUDY    21  18  86 CALM      29.83S
$$

INZ001>003-010>013-019-020-160100-
NORTHWEST INDIANA

CITY           SKY/WX    TMP DP  RH WIND       PRES   REMARKS
GARY*          CLOUDY    34  18  51 SW18      29.93F WCI  23
MICHIGAN CITY* NOT AVBL
RENSSELAER*    NOT AVBL
VALPARAISO     CLOUDY    33  21  61 SW15      29.94R WCI  23
$$

LMZ740>746-160100-
SOUTHERN LAKE MICHIGAN

STATION/POSITION TIME  SKY/WX   TEMP WIND        PRES    VSBY
                                AIR  DIR/SP/G
                 (UTC)          (F)  (DEG/KT/KT) (MB)    (MI)
HARRISON CRIB    2340            35  240/ 14/ 18   N/A
BURNHAM HARBOR   0000            34  210/  4/ 11   N/A
CALUMET HARBOR   2330            33  210/  7/ 10 1012.4F
BURNS HARBOR     2340            33  220/ 10/ 16 1013.9S
MICHIGAN CITY    2340            32  210/ 17/ 19   N/A
$$

ABBREVIATIONS USED IN REMARKS
   TC - TEMPERATURE IN CELSIUS
  WCI - WIND CHILL INDEX
   HX - HEAT INDEX
  VSB - VISIBILITY
$$



USA.gov is the U.S. government's official web portal to all federal, state and local government web resources and services.